Year,Month,Day,Hour,Minute,Value (Times are PST for temperature in C)
2018,08,17,00,00,14.40
2018,08,17,00,01,14.40
2018,08,17,00,02,14.40
2018,08,17,00,03,14.40
2018,08,17,00,04,14.40
2018,08,17,00,05,14.40
2018,08,17,00,06,14.40
2018,08,17,00,07,14.40
2018,08,17,00,08,14.40
2018,08,17,00,09,14.40
2018,08,17,00,10,14.40
2018,08,17,00,11,14.40
2018,08,17,00,12,14.30
2018,08,17,00,13,14.30
2018,08,17,00,14,14.30
2018,08,17,00,15,14.30
2018,08,17,00,16,14.30
2018,08,17,00,17,14.30
2018,08,17,00,18,14.20
2018,08,17,00,19,14.20
2018,08,17,00,20,14.20
2018,08,17,00,21,14.20
2018,08,17,00,22,14.20
2018,08,17,00,23,14.20
2018,08,17,00,24,14.20
2018,08,17,00,25,14.20
2018,08,17,00,26,14.20
2018,08,17,00,27,14.20
2018,08,17,00,28,14.20
2018,08,17,00,29,14.20
2018,08,17,00,30,14.20
2018,08,17,00,31,14.20
2018,08,17,00,32,14.20
2018,08,17,00,33,14.20
2018,08,17,00,34,14.20
2018,08,17,00,35,14.20
2018,08,17,00,36,14.20
2018,08,17,00,37,14.20
2018,08,17,00,38,14.20
2018,08,17,00,39,14.20
2018,08,17,00,40,14.10
2018,08,17,00,41,14.10
2018,08,17,00,42,14.10
2018,08,17,00,43,14.10
2018,08,17,00,44,14.10
2018,08,17,00,45,14.10
2018,08,17,00,46,14.10
2018,08,17,00,47,14.10
2018,08,17,00,48,14.10
2018,08,17,00,49,14.10
2018,08,17,00,50,14.10
2018,08,17,00,51,14.10
2018,08,17,00,52,14.10
2018,08,17,00,53,14.10
2018,08,17,00,54,14.10
2018,08,17,00,55,14.10
2018,08,17,00,56,14.10
2018,08,17,00,57,14.00
2018,08,17,00,58,14.00
2018,08,17,00,59,14.00
2018,08,17,01,00,14.00
2018,08,17,01,01,14.00
2018,08,17,01,02,14.00
2018,08,17,01,03,13.90
2018,08,17,01,04,13.90
2018,08,17,01,05,13.90
2018,08,17,01,06,13.90
2018,08,17,01,07,13.90
2018,08,17,01,08,13.90
2018,08,17,01,09,13.90
2018,08,17,01,10,13.90
2018,08,17,01,11,13.90
2018,08,17,01,12,13.90
2018,08,17,01,13,13.90
2018,08,17,01,14,13.90
2018,08,17,01,15,13.90
2018,08,17,01,16,13.90
2018,08,17,01,17,13.90
2018,08,17,01,18,13.90
2018,08,17,01,19,13.90
2018,08,17,01,20,13.90
2018,08,17,01,21,13.90
2018,08,17,01,22,13.90
2018,08,17,01,23,13.90
2018,08,17,01,24,13.90
2018,08,17,01,25,13.90
2018,08,17,01,26,13.90
2018,08,17,01,27,13.90
2018,08,17,01,28,13.90
2018,08,17,01,29,13.80
2018,08,17,01,30,13.80
2018,08,17,01,31,13.80
2018,08,17,01,32,13.80
2018,08,17,01,33,13.80
2018,08,17,01,34,13.80
2018,08,17,01,35,13.80
2018,08,17,01,36,13.80
2018,08,17,01,37,13.80
2018,08,17,01,38,13.80
2018,08,17,01,39,13.80
2018,08,17,01,40,13.80
2018,08,17,01,41,13.80
2018,08,17,01,42,13.80
2018,08,17,01,43,13.80
2018,08,17,01,44,13.80
2018,08,17,01,45,13.80
2018,08,17,01,46,13.80
2018,08,17,01,47,13.80
2018,08,17,01,48,13.80
2018,08,17,01,49,13.80
2018,08,17,01,50,13.80
2018,08,17,01,51,13.80
2018,08,17,01,52,13.90
2018,08,17,01,53,13.90
2018,08,17,01,54,13.90
2018,08,17,01,55,13.90
2018,08,17,01,56,13.90
2018,08,17,01,57,13.90
2018,08,17,01,58,13.90
2018,08,17,01,59,13.80
2018,08,17,02,00,13.80
2018,08,17,02,01,13.80
2018,08,17,02,02,13.80
2018,08,17,02,03,13.80
2018,08,17,02,04,13.80
2018,08,17,02,05,13.80
2018,08,17,02,06,13.80
2018,08,17,02,07,13.80
2018,08,17,02,08,13.80
2018,08,17,02,09,13.80
2018,08,17,02,10,13.80
2018,08,17,02,11,13.80
2018,08,17,02,12,13.80
2018,08,17,02,13,13.80
2018,08,17,02,14,13.80
2018,08,17,02,15,13.80
2018,08,17,02,16,13.80
2018,08,17,02,17,13.80
2018,08,17,02,18,13.80
2018,08,17,02,19,13.80
2018,08,17,02,20,13.80
2018,08,17,02,21,13.80
2018,08,17,02,22,13.80
2018,08,17,02,23,13.80
2018,08,17,02,24,13.80
2018,08,17,02,25,13.90
2018,08,17,02,26,13.90
2018,08,17,02,27,13.90
2018,08,17,02,28,13.80
2018,08,17,02,29,13.80
2018,08,17,02,30,13.80
2018,08,17,02,31,13.80
2018,08,17,02,32,13.80
2018,08,17,02,33,13.80
2018,08,17,02,34,13.80
2018,08,17,02,35,13.80
2018,08,17,02,36,13.90
2018,08,17,02,37,13.80
2018,08,17,02,38,13.80
2018,08,17,02,39,13.80
2018,08,17,02,40,13.80
2018,08,17,02,41,13.80
2018,08,17,02,42,13.80
2018,08,17,02,43,13.80
2018,08,17,02,44,13.80
2018,08,17,02,45,13.80
2018,08,17,02,46,13.80
2018,08,17,02,47,13.80
2018,08,17,02,48,13.80
2018,08,17,02,49,13.80
2018,08,17,02,50,13.70
2018,08,17,02,51,13.70
2018,08,17,02,52,13.70
2018,08,17,02,53,13.70
2018,08,17,02,54,13.70
2018,08,17,02,55,13.70
2018,08,17,02,56,13.70
2018,08,17,02,57,13.70
2018,08,17,02,58,13.70
2018,08,17,02,59,13.70
2018,08,17,03,00,13.70
2018,08,17,03,01,13.70
2018,08,17,03,02,13.70
2018,08,17,03,03,13.70
2018,08,17,03,04,13.70
2018,08,17,03,05,13.70
2018,08,17,03,06,13.70
2018,08,17,03,07,13.70
2018,08,17,03,08,13.70
2018,08,17,03,09,13.70
2018,08,17,03,10,13.70
2018,08,17,03,11,13.70
2018,08,17,03,12,13.70
2018,08,17,03,13,13.70
2018,08,17,03,14,13.70
2018,08,17,03,15,13.70
2018,08,17,03,16,13.70
2018,08,17,03,17,13.70
2018,08,17,03,18,13.70
2018,08,17,03,19,13.70
2018,08,17,03,20,13.70
2018,08,17,03,21,13.70
2018,08,17,03,22,13.70
2018,08,17,03,23,13.70
2018,08,17,03,24,13.70
2018,08,17,03,25,13.70
2018,08,17,03,26,13.70
2018,08,17,03,27,13.70
2018,08,17,03,28,13.70
2018,08,17,03,29,13.70
2018,08,17,03,30,13.70
2018,08,17,03,31,13.70
2018,08,17,03,32,13.70
2018,08,17,03,33,13.70
2018,08,17,03,34,13.70
2018,08,17,03,35,13.70
2018,08,17,03,36,13.70
2018,08,17,03,37,13.70
2018,08,17,03,38,13.70
2018,08,17,03,39,13.70
2018,08,17,03,40,13.70
2018,08,17,03,41,13.70
2018,08,17,03,42,13.70
2018,08,17,03,43,13.70
2018,08,17,03,44,13.70
2018,08,17,03,45,13.70
2018,08,17,03,46,13.70
2018,08,17,03,47,13.70
2018,08,17,03,48,13.70
2018,08,17,03,49,13.70
2018,08,17,03,50,13.70
2018,08,17,03,51,13.70
2018,08,17,03,52,13.70
2018,08,17,03,53,13.70
2018,08,17,03,54,13.70
2018,08,17,03,55,13.70
2018,08,17,03,56,13.70
2018,08,17,03,57,13.70
2018,08,17,03,58,13.70
2018,08,17,03,59,13.70
2018,08,17,04,00,13.70
2018,08,17,04,01,13.70
2018,08,17,04,02,13.70
2018,08,17,04,03,13.70
2018,08,17,04,04,13.70
2018,08,17,04,05,13.70
2018,08,17,04,06,13.70
2018,08,17,04,07,13.70
2018,08,17,04,08,13.70
2018,08,17,04,09,13.70
2018,08,17,04,10,13.70
2018,08,17,04,11,13.70
2018,08,17,04,12,13.70
2018,08,17,04,13,13.70
2018,08,17,04,14,13.70
2018,08,17,04,15,13.70
2018,08,17,04,16,13.70
2018,08,17,04,17,13.70
2018,08,17,04,18,13.70
2018,08,17,04,19,13.70
2018,08,17,04,20,13.70
2018,08,17,04,21,13.70
2018,08,17,04,22,13.70
2018,08,17,04,23,13.70
2018,08,17,04,24,13.70
2018,08,17,04,25,13.70
2018,08,17,04,26,13.70
2018,08,17,04,27,13.70
2018,08,17,04,28,13.70
2018,08,17,04,29,13.70
2018,08,17,04,30,13.70
2018,08,17,04,31,13.70
2018,08,17,04,32,13.70
2018,08,17,04,33,13.70
2018,08,17,04,34,13.70
2018,08,17,04,35,13.70
2018,08,17,04,36,13.70
2018,08,17,04,37,13.70
2018,08,17,04,38,13.70
2018,08,17,04,39,13.70
2018,08,17,04,40,13.70
2018,08,17,04,41,13.70
2018,08,17,04,42,13.70
2018,08,17,04,43,13.70
2018,08,17,04,44,13.70
2018,08,17,04,45,13.70
2018,08,17,04,46,13.70
2018,08,17,04,47,13.70
2018,08,17,04,48,13.70
2018,08,17,04,49,13.70
2018,08,17,04,50,13.70
2018,08,17,04,51,13.70
2018,08,17,04,52,13.70
2018,08,17,04,53,13.70
2018,08,17,04,54,13.70
2018,08,17,04,55,13.70
2018,08,17,04,56,13.70
2018,08,17,04,57,13.70
2018,08,17,04,58,13.70
2018,08,17,04,59,13.70
2018,08,17,05,00,13.70
2018,08,17,05,01,13.70
2018,08,17,05,02,13.70
2018,08,17,05,03,13.70
2018,08,17,05,04,13.70
2018,08,17,05,05,13.70
2018,08,17,05,06,13.70
2018,08,17,05,07,13.60
2018,08,17,05,08,13.60
2018,08,17,05,09,13.60
2018,08,17,05,10,13.60
2018,08,17,05,11,13.60
2018,08,17,05,12,13.60
2018,08,17,05,13,13.60
2018,08,17,05,14,13.60
2018,08,17,05,15,13.60
2018,08,17,05,16,13.60
2018,08,17,05,17,13.60
2018,08,17,05,18,13.60
2018,08,17,05,19,13.60
2018,08,17,05,20,13.60
2018,08,17,05,21,13.60
2018,08,17,05,22,13.60
2018,08,17,05,23,13.60
2018,08,17,05,24,13.60
2018,08,17,05,25,13.60
2018,08,17,05,26,13.60
2018,08,17,05,27,13.60
2018,08,17,05,28,13.60
2018,08,17,05,29,13.60
2018,08,17,05,30,13.60
2018,08,17,05,31,13.60
2018,08,17,05,32,13.60
2018,08,17,05,33,13.60
2018,08,17,05,34,13.60
2018,08,17,05,35,13.60
2018,08,17,05,36,13.60
2018,08,17,05,37,13.60
2018,08,17,05,38,13.60
2018,08,17,05,39,13.60
2018,08,17,05,40,13.60
2018,08,17,05,41,13.60
2018,08,17,05,42,13.60
2018,08,17,05,43,13.60
2018,08,17,05,44,13.60
2018,08,17,05,45,13.60
2018,08,17,05,46,13.60
2018,08,17,05,47,13.60
2018,08,17,05,48,13.60
2018,08,17,05,49,13.60
2018,08,17,05,50,13.60
2018,08,17,05,51,13.60
2018,08,17,05,52,13.50
2018,08,17,05,53,13.50
2018,08,17,05,54,13.50
2018,08,17,05,55,13.40
2018,08,17,05,56,13.40
2018,08,17,05,57,13.40
2018,08,17,05,58,13.40
2018,08,17,05,59,13.30
2018,08,17,06,00,13.30
2018,08,17,06,01,13.30
2018,08,17,06,02,13.30
2018,08,17,06,03,13.30
2018,08,17,06,04,13.30
2018,08,17,06,05,13.30
2018,08,17,06,06,13.30
2018,08,17,06,07,13.30
2018,08,17,06,08,13.30
2018,08,17,06,09,13.30
2018,08,17,06,10,13.30
2018,08,17,06,11,13.30
2018,08,17,06,12,13.30
2018,08,17,06,13,13.30
2018,08,17,06,14,13.30
2018,08,17,06,15,13.30
2018,08,17,06,16,13.30
2018,08,17,06,17,13.30
2018,08,17,06,18,13.30
2018,08,17,06,19,13.30
2018,08,17,06,20,13.30
2018,08,17,06,21,13.30
2018,08,17,06,22,13.30
2018,08,17,06,23,13.30
2018,08,17,06,24,13.30
2018,08,17,06,25,13.30
2018,08,17,06,26,13.30
2018,08,17,06,27,13.30
2018,08,17,06,28,13.30
2018,08,17,06,29,13.30
2018,08,17,06,30,13.30
2018,08,17,06,31,13.30
2018,08,17,06,32,13.30
2018,08,17,06,33,13.30
2018,08,17,06,34,13.30
2018,08,17,06,35,13.30
2018,08,17,06,36,13.30
2018,08,17,06,37,13.30
2018,08,17,07,44,13.50
2018,08,17,07,45,13.60
2018,08,17,07,46,13.60
2018,08,17,07,47,13.60
2018,08,17,07,48,13.60
2018,08,17,07,49,13.70
2018,08,17,07,50,13.70
2018,08,17,07,51,13.70
2018,08,17,07,52,13.80
2018,08,17,07,53,13.90
2018,08,17,07,54,13.90
2018,08,17,07,55,14.00
2018,08,17,07,56,14.10
2018,08,17,07,57,14.20
2018,08,17,07,58,14.30
2018,08,17,07,59,14.30
2018,08,17,08,00,14.40
2018,08,17,08,01,14.50
2018,08,17,08,02,14.60
2018,08,17,08,03,14.70
2018,08,17,08,04,14.70
2018,08,17,08,05,14.80
2018,08,17,08,06,14.80
2018,08,17,08,07,14.90
2018,08,17,08,08,14.90
2018,08,17,08,09,14.90
2018,08,17,08,10,14.90
2018,08,17,08,11,14.90
2018,08,17,08,12,14.90
2018,08,17,08,13,14.90
2018,08,17,08,14,14.90
2018,08,17,08,15,14.90
2018,08,17,08,16,14.90
2018,08,17,08,17,14.90
2018,08,17,08,18,14.90
2018,08,17,08,19,14.90
2018,08,17,08,20,14.90
2018,08,17,08,21,14.90
2018,08,17,08,22,14.90
2018,08,17,08,23,14.90
2018,08,17,08,24,14.90
2018,08,17,08,25,14.90
2018,08,17,08,26,15.00
2018,08,17,08,27,15.00
2018,08,17,08,28,15.00
2018,08,17,08,29,15.10
2018,08,17,08,30,15.10
2018,08,17,08,31,15.20
2018,08,17,08,32,15.20
2018,08,17,08,33,15.20
2018,08,17,08,34,15.20
2018,08,17,08,35,15.20
2018,08,17,08,36,15.20
2018,08,17,08,37,15.20
2018,08,17,08,38,15.30
2018,08,17,08,39,15.30
2018,08,17,08,40,15.30
2018,08,17,08,41,15.30
2018,08,17,08,42,15.40
2018,08,17,08,43,15.40
2018,08,17,08,44,15.40
2018,08,17,08,45,15.40
2018,08,17,08,46,15.40
2018,08,17,08,47,15.50
2018,08,17,08,48,15.50
2018,08,17,08,49,15.50
2018,08,17,08,50,15.60
2018,08,17,08,51,15.60
2018,08,17,08,52,15.60
2018,08,17,08,53,15.60
2018,08,17,08,54,15.70
2018,08,17,08,55,15.70
2018,08,17,08,56,15.70
2018,08,17,08,57,15.80
2018,08,17,08,58,15.80
2018,08,17,08,59,15.80
2018,08,17,09,00,15.80
2018,08,17,09,01,15.90
2018,08,17,09,02,15.90
2018,08,17,09,03,15.90
2018,08,17,09,04,15.90
2018,08,17,09,05,15.90
2018,08,17,09,06,15.90
2018,08,17,09,07,15.90
2018,08,17,09,08,16.00
2018,08,17,09,09,16.20
2018,08,17,09,10,16.20
2018,08,17,09,11,16.30
2018,08,17,09,12,16.30
2018,08,17,09,13,16.30
2018,08,17,09,14,16.40
2018,08,17,09,15,16.40
2018,08,17,09,16,16.40
2018,08,17,09,17,16.40
2018,08,17,09,18,16.50
2018,08,17,09,19,16.50
2018,08,17,09,20,16.60
2018,08,17,09,21,16.60
2018,08,17,09,22,16.60
2018,08,17,09,23,16.60
2018,08,17,09,24,16.70
2018,08,17,09,25,16.70
2018,08,17,09,26,16.80
2018,08,17,09,27,16.80
2018,08,17,09,28,16.80
2018,08,17,09,29,16.80
2018,08,17,09,30,16.90
2018,08,17,09,31,16.90
2018,08,17,09,32,16.90
2018,08,17,09,33,17.00
2018,08,17,09,34,17.00
2018,08,17,09,35,17.10
2018,08,17,09,36,17.10
2018,08,17,09,37,17.10
2018,08,17,09,38,17.20
2018,08,17,09,39,17.20
2018,08,17,09,40,17.20
2018,08,17,09,41,17.20
2018,08,17,09,42,17.10
2018,08,17,09,43,17.10
2018,08,17,09,44,17.00
2018,08,17,09,45,16.90
2018,08,17,09,46,16.80
2018,08,17,09,47,16.80
2018,08,17,09,48,16.80
2018,08,17,09,49,16.80
2018,08,17,09,50,16.80
2018,08,17,09,51,16.80
2018,08,17,09,52,16.80
2018,08,17,09,53,16.80
2018,08,17,09,54,16.80
2018,08,17,09,55,16.80
2018,08,17,09,56,16.80
2018,08,17,09,57,16.80
2018,08,17,09,58,16.80
2018,08,17,09,59,16.80
2018,08,17,10,00,16.80
2018,08,17,10,01,16.90
2018,08,17,10,02,16.90
2018,08,17,10,03,17.00
2018,08,17,10,04,17.00
2018,08,17,10,05,17.10
2018,08,17,10,06,17.10
2018,08,17,10,07,17.20
2018,08,17,10,08,17.20
2018,08,17,10,09,17.10
2018,08,17,10,10,17.10
2018,08,17,10,11,17.00
2018,08,17,10,12,17.00
2018,08,17,10,13,16.90
2018,08,17,10,14,16.80
2018,08,17,10,15,16.80
2018,08,17,10,16,16.80
2018,08,17,10,17,16.80
2018,08,17,10,18,16.80
2018,08,17,10,19,16.80
2018,08,17,10,20,16.80
2018,08,17,10,21,16.80
2018,08,17,10,22,16.90
2018,08,17,10,23,16.90
2018,08,17,10,24,16.80
2018,08,17,10,25,16.80
2018,08,17,10,26,16.80
2018,08,17,10,27,16.80
2018,08,17,10,28,16.80
2018,08,17,10,29,16.80
2018,08,17,10,30,16.80
2018,08,17,10,31,16.80
2018,08,17,10,32,16.80
2018,08,17,10,33,16.80
2018,08,17,10,34,16.80
2018,08,17,10,35,16.80
2018,08,17,10,36,16.80
2018,08,17,10,37,16.80
2018,08,17,10,38,16.80
2018,08,17,10,39,16.80
2018,08,17,10,40,16.70
2018,08,17,10,41,16.70
2018,08,17,10,42,16.70
2018,08,17,10,43,16.70
2018,08,17,10,44,16.70
2018,08,17,10,45,16.70
2018,08,17,10,46,16.70
2018,08,17,10,47,16.60
2018,08,17,10,48,16.60
2018,08,17,10,49,16.60
2018,08,17,10,50,16.60
2018,08,17,10,51,16.60
2018,08,17,10,52,16.70
2018,08,17,10,53,16.70
2018,08,17,10,54,16.60
2018,08,17,10,55,16.60
2018,08,17,10,56,16.60
2018,08,17,10,57,16.60
2018,08,17,10,58,16.60
2018,08,17,10,59,16.60
2018,08,17,11,00,16.60
2018,08,17,11,01,16.60
2018,08,17,11,02,16.60
2018,08,17,11,03,16.50
2018,08,17,11,04,16.50
2018,08,17,11,05,16.60
2018,08,17,11,06,16.50
2018,08,17,11,07,16.50
2018,08,17,11,08,16.50
2018,08,17,11,09,16.50
2018,08,17,11,10,16.50
2018,08,17,11,11,16.50
2018,08,17,11,12,16.40
2018,08,17,11,13,16.40
2018,08,17,11,14,16.40
2018,08,17,11,15,16.30
2018,08,17,11,16,16.30
2018,08,17,11,17,16.30
2018,08,17,11,18,16.20
2018,08,17,11,19,16.20
2018,08,17,11,20,16.20
2018,08,17,11,21,16.20
2018,08,17,11,22,16.10
2018,08,17,11,23,16.10
2018,08,17,11,24,16.00
2018,08,17,11,25,16.00
2018,08,17,11,26,16.00
2018,08,17,11,27,15.90
2018,08,17,11,28,15.90
2018,08,17,11,29,15.90
2018,08,17,11,30,15.90
2018,08,17,11,31,15.90
2018,08,17,11,32,15.90
2018,08,17,11,33,15.80
2018,08,17,11,34,15.80
2018,08,17,11,35,15.80
2018,08,17,11,36,15.80
2018,08,17,11,37,15.70
2018,08,17,11,38,15.70
2018,08,17,11,39,15.60
2018,08,17,11,40,15.60
2018,08,17,11,41,15.60
2018,08,17,11,42,15.50
2018,08,17,11,43,15.40
2018,08,17,11,44,15.40
2018,08,17,11,45,15.30
2018,08,17,11,46,15.30
2018,08,17,11,47,15.30
2018,08,17,11,48,15.30
2018,08,17,11,49,15.30
2018,08,17,11,50,15.30
2018,08,17,11,51,15.20
2018,08,17,11,52,15.20
2018,08,17,11,53,15.20
2018,08,17,11,54,15.20
2018,08,17,11,55,15.10
2018,08,17,11,56,15.00
2018,08,17,11,57,15.00
2018,08,17,11,58,14.90
2018,08,17,11,59,14.80
2018,08,17,12,00,14.70
2018,08,17,12,01,14.70
2018,08,17,12,02,14.70
2018,08,17,12,03,14.70
2018,08,17,12,04,14.70
2018,08,17,12,05,14.80
2018,08,17,12,06,14.90
2018,08,17,12,07,15.00
2018,08,17,12,08,15.00
2018,08,17,12,09,15.10
2018,08,17,12,10,15.10
2018,08,17,12,11,15.20
2018,08,17,12,12,15.20
2018,08,17,12,13,15.30
2018,08,17,12,14,15.30
2018,08,17,12,15,15.30
2018,08,17,12,16,15.30
2018,08,17,12,17,15.30
2018,08,17,12,18,15.40
2018,08,17,12,19,15.40
2018,08,17,12,20,15.40
2018,08,17,12,21,15.40
2018,08,17,12,22,15.40
2018,08,17,12,23,15.40
2018,08,17,12,24,15.40
2018,08,17,12,25,15.40
2018,08,17,12,26,15.40
2018,08,17,12,27,15.40
2018,08,17,12,28,15.40
2018,08,17,12,29,15.40
2018,08,17,12,30,15.40
2018,08,17,12,31,15.40
2018,08,17,12,32,15.40
2018,08,17,12,33,15.40
2018,08,17,12,34,15.40
2018,08,17,12,35,15.40
2018,08,17,12,36,15.30
2018,08,17,12,37,15.30
2018,08,17,12,38,15.30
2018,08,17,12,39,15.30
2018,08,17,12,40,15.30
2018,08,17,12,41,15.30
2018,08,17,12,42,15.30
2018,08,17,12,43,15.40
2018,08,17,12,44,15.40
2018,08,17,12,45,15.40
2018,08,17,12,46,15.40
2018,08,17,12,47,15.40
2018,08,17,12,48,15.40
2018,08,17,12,49,15.40
2018,08,17,12,50,15.40
2018,08,17,12,51,15.40
2018,08,17,12,52,15.30
2018,08,17,12,53,15.30
2018,08,17,12,54,15.30
2018,08,17,12,55,15.30
2018,08,17,12,56,15.30
2018,08,17,12,57,15.30
2018,08,17,12,58,15.30
2018,08,17,12,59,15.30
2018,08,17,13,00,15.30
2018,08,17,13,01,15.30
2018,08,17,13,02,15.30
2018,08,17,13,03,15.30
2018,08,17,13,04,15.30
2018,08,17,13,05,15.30
2018,08,17,13,06,15.30
2018,08,17,13,07,15.30
2018,08,17,13,08,15.40
2018,08,17,13,09,15.40
2018,08,17,13,10,15.40
2018,08,17,13,11,15.40
2018,08,17,13,12,15.40
2018,08,17,13,13,15.40
2018,08,17,13,14,15.40
2018,08,17,13,15,15.40
2018,08,17,13,16,15.40
2018,08,17,13,17,15.40
2018,08,17,13,18,15.40
2018,08,17,13,19,15.40
2018,08,17,13,20,15.40
2018,08,17,13,21,15.40
2018,08,17,13,22,15.40
2018,08,17,13,23,15.50
2018,08,17,13,24,15.50
2018,08,17,13,25,15.50
2018,08,17,13,26,15.60
2018,08,17,13,27,15.60
2018,08,17,13,28,15.60
2018,08,17,13,29,15.60
2018,08,17,13,30,15.60
2018,08,17,13,31,15.70
2018,08,17,13,32,15.70
2018,08,17,13,33,15.70
2018,08,17,13,34,15.70
2018,08,17,13,35,15.80
2018,08,17,13,36,15.80
2018,08,17,13,37,15.80
2018,08,17,13,38,15.80
2018,08,17,13,39,15.70
2018,08,17,13,40,15.70
2018,08,17,13,41,15.70
2018,08,17,13,42,15.70
2018,08,17,13,43,15.70
2018,08,17,13,44,15.70
2018,08,17,13,45,15.70
2018,08,17,13,46,15.70
2018,08,17,13,47,15.70
2018,08,17,13,48,15.80
2018,08,17,13,49,15.80
2018,08,17,13,50,15.80
2018,08,17,13,51,15.80
2018,08,17,13,52,15.80
2018,08,17,13,53,15.80
2018,08,17,13,54,15.80
2018,08,17,13,55,15.80
2018,08,17,13,56,15.80
2018,08,17,13,57,15.90
2018,08,17,13,58,15.90
2018,08,17,13,59,15.90
2018,08,17,14,00,15.80
2018,08,17,14,01,15.80
2018,08,17,14,02,15.80
2018,08,17,14,03,15.80
2018,08,17,14,04,15.80
2018,08,17,14,05,15.80
2018,08,17,14,06,15.80
2018,08,17,14,07,15.80
2018,08,17,14,08,15.80
2018,08,17,14,09,15.80
2018,08,17,14,10,15.70
2018,08,17,14,11,15.70
2018,08,17,14,12,15.70
2018,08,17,14,13,15.70
2018,08,17,14,14,15.70
2018,08,17,14,15,15.70
2018,08,17,14,16,15.70
2018,08,17,14,17,15.70
2018,08,17,14,18,15.80
2018,08,17,14,19,15.80
2018,08,17,14,20,15.80
2018,08,17,14,21,15.80
2018,08,17,14,22,15.70
2018,08,17,14,23,15.70
2018,08,17,14,24,15.70
2018,08,17,14,25,15.70
2018,08,17,14,26,15.70
2018,08,17,14,27,15.70
2018,08,17,14,28,15.70
2018,08,17,14,29,15.70
2018,08,17,14,30,15.70
2018,08,17,14,31,15.60
2018,08,17,14,32,15.60
2018,08,17,14,33,15.60
2018,08,17,14,34,15.60
2018,08,17,14,35,15.60
2018,08,17,14,36,15.60
2018,08,17,14,37,15.60
2018,08,17,14,38,15.60
2018,08,17,14,39,15.70
2018,08,17,14,40,15.70
2018,08,17,14,41,15.70
2018,08,17,14,42,15.70
2018,08,17,14,43,15.70
2018,08,17,14,44,15.70
2018,08,17,14,45,15.70
2018,08,17,14,46,15.70
2018,08,17,14,47,15.70
2018,08,17,14,48,15.70
2018,08,17,14,49,15.80
2018,08,17,14,50,15.80
2018,08,17,14,51,15.80
2018,08,17,14,52,15.80
2018,08,17,14,53,15.80
2018,08,17,14,54,15.80
2018,08,17,14,55,15.80
2018,08,17,14,56,15.80
2018,08,17,14,57,15.80
2018,08,17,14,58,15.80
2018,08,17,14,59,15.80
2018,08,17,15,00,15.80
2018,08,17,15,01,15.80
2018,08,17,15,02,15.80
2018,08,17,15,03,15.80
2018,08,17,15,04,15.80
2018,08,17,15,05,15.80
2018,08,17,15,06,15.80
2018,08,17,15,07,15.80
2018,08,17,15,08,15.80
2018,08,17,15,09,15.80
2018,08,17,15,10,15.80
2018,08,17,15,11,15.80
2018,08,17,15,12,15.80
2018,08,17,15,13,15.80
2018,08,17,15,14,15.90
2018,08,17,15,15,15.90
2018,08,17,15,16,15.90
2018,08,17,15,17,15.90
2018,08,17,15,18,15.90
2018,08,17,15,19,15.90
2018,08,17,15,20,15.90
2018,08,17,15,21,15.90
2018,08,17,15,22,15.90
2018,08,17,15,23,15.80
2018,08,17,15,24,15.80
2018,08,17,15,25,15.80
2018,08,17,15,26,15.80
2018,08,17,15,27,15.80
2018,08,17,15,28,15.80
2018,08,17,15,29,15.80
2018,08,17,15,30,15.80
2018,08,17,15,31,15.80
2018,08,17,15,32,15.80
2018,08,17,15,33,15.80
2018,08,17,15,34,15.70
2018,08,17,15,35,15.70
2018,08,17,15,36,15.70
2018,08,17,15,37,15.70
2018,08,17,15,38,15.70
2018,08,17,15,39,15.70
2018,08,17,15,40,15.70
2018,08,17,15,41,15.70
2018,08,17,15,42,15.60
2018,08,17,15,43,15.60
2018,08,17,15,44,15.70
2018,08,17,15,45,15.70
2018,08,17,15,46,15.70
2018,08,17,15,47,15.70
2018,08,17,15,48,15.70
2018,08,17,15,49,15.80
2018,08,17,15,50,15.80
2018,08,17,15,51,15.80
2018,08,17,15,52,15.80
2018,08,17,15,53,15.80
2018,08,17,15,54,15.80
2018,08,17,15,55,15.80
2018,08,17,15,56,15.80
2018,08,17,15,57,15.80
2018,08,17,15,58,15.80
2018,08,17,15,59,15.80
2018,08,17,16,00,15.80
2018,08,17,16,01,15.80
2018,08,17,16,02,15.80
2018,08,17,16,03,15.80
2018,08,17,16,04,15.80
2018,08,17,16,05,15.80
2018,08,17,16,06,15.80
2018,08,17,16,07,15.80
2018,08,17,16,08,15.80
2018,08,17,16,09,15.80
2018,08,17,16,10,15.80
2018,08,17,16,11,15.70
2018,08,17,16,12,15.70
2018,08,17,16,13,15.70
2018,08,17,16,14,15.70
2018,08,17,16,15,15.70
2018,08,17,16,16,15.70
2018,08,17,16,17,15.70
2018,08,17,16,18,15.70
2018,08,17,16,19,15.70
2018,08,17,16,20,15.70
2018,08,17,16,21,15.70
2018,08,17,16,22,15.80
2018,08,17,16,23,15.80
2018,08,17,16,24,15.80
2018,08,17,16,25,15.80
2018,08,17,16,26,15.80
2018,08,17,16,27,15.80
2018,08,17,16,28,15.80
2018,08,17,16,29,15.80
2018,08,17,16,30,15.80
2018,08,17,16,31,15.80
2018,08,17,16,32,15.70
2018,08,17,16,33,15.70
2018,08,17,16,34,15.70
2018,08,17,16,35,15.70
2018,08,17,16,36,15.70
2018,08,17,16,37,15.70
2018,08,17,16,38,15.70
2018,08,17,16,39,15.70
2018,08,17,16,40,15.70
2018,08,17,16,41,15.70
2018,08,17,16,42,15.70
2018,08,17,16,43,15.70
2018,08,17,16,44,15.70
2018,08,17,16,45,15.70
2018,08,17,16,46,15.70
2018,08,17,16,47,15.70
2018,08,17,16,48,15.70
2018,08,17,16,49,15.60
2018,08,17,16,50,15.60
2018,08,17,16,51,15.60
2018,08,17,16,52,15.60
2018,08,17,16,53,15.60
2018,08,17,16,54,15.60
2018,08,17,16,55,15.60
2018,08,17,16,56,15.60
2018,08,17,16,57,15.60
2018,08,17,16,58,15.60
2018,08,17,16,59,15.60
2018,08,17,17,00,15.60
2018,08,17,17,01,15.60
2018,08,17,17,02,15.60
2018,08,17,17,03,15.60
2018,08,17,17,04,15.50
2018,08,17,17,05,15.50
2018,08,17,17,06,15.50
2018,08,17,17,07,15.50
2018,08,17,17,08,15.50
2018,08,17,17,09,15.40
2018,08,17,17,10,15.40
2018,08,17,17,11,15.40
2018,08,17,17,12,15.40
2018,08,17,17,13,15.40
2018,08,17,17,14,15.40
2018,08,17,17,15,15.40
2018,08,17,17,16,15.40
2018,08,17,17,17,15.40
2018,08,17,17,18,15.40
2018,08,17,17,19,15.40
2018,08,17,17,20,15.50
2018,08,17,17,21,15.50
2018,08,17,17,22,15.50
2018,08,17,17,23,15.50
2018,08,17,17,24,15.50
2018,08,17,17,25,15.50
2018,08,17,17,26,15.50
2018,08,17,17,27,15.50
2018,08,17,17,28,15.40
2018,08,17,17,29,15.40
2018,08,17,17,30,15.50
2018,08,17,17,31,15.50
2018,08,17,17,32,15.50
2018,08,17,17,33,15.50
2018,08,17,17,34,15.50
2018,08,17,17,35,15.60
2018,08,17,17,36,15.50
2018,08,17,17,37,15.50
2018,08,17,17,38,15.40
2018,08,17,17,39,15.40
2018,08,17,17,40,15.40
2018,08,17,17,41,15.40
2018,08,17,17,42,15.30
2018,08,17,17,43,15.40
2018,08,17,17,44,15.40
2018,08,17,17,45,15.40
2018,08,17,17,46,15.40
2018,08,17,17,47,15.40
2018,08,17,17,48,15.40
2018,08,17,17,49,15.30
2018,08,17,17,50,15.30
2018,08,17,17,51,15.30
2018,08,17,17,52,15.30
2018,08,17,17,53,15.20
2018,08,17,17,54,15.20
2018,08,17,17,55,15.20
2018,08,17,17,56,15.10
2018,08,17,17,57,15.10
2018,08,17,17,58,15.10
2018,08,17,17,59,15.10
2018,08,17,18,00,15.00
2018,08,17,18,01,15.00
2018,08,17,18,02,15.00
2018,08,17,18,03,15.10
2018,08,17,18,04,15.10
2018,08,17,18,05,15.10
2018,08,17,18,06,15.10
2018,08,17,18,07,15.20
2018,08,17,18,08,15.20
2018,08,17,18,09,15.20
2018,08,17,18,10,15.20
2018,08,17,18,11,15.30
2018,08,17,18,12,15.30
2018,08,17,18,13,15.30
2018,08,17,18,14,15.30
2018,08,17,18,15,15.30
2018,08,17,18,16,15.30
2018,08,17,18,17,15.30
2018,08,17,18,18,15.30
2018,08,17,18,19,15.30
2018,08,17,18,20,15.30
2018,08,17,18,21,15.40
2018,08,17,18,22,15.40
2018,08,17,18,23,15.40
2018,08,17,18,24,15.50
2018,08,17,18,25,15.60